SWR5ZV EDDM-LEPA

Flight info

Callsign SWR5ZV
Flight time N/A
Altitude 37000
Route TURBU7S TURBU Y107 TOBSO DCT BAKOR DCT SUMIR DCT MISPO DCT PIDAD DCT TALEP DCT RARQU DCT BALEN UT250 RIXOT
Aircraft MD11/H-SDE1E2E3FGHIJ2J3J4J5M1RWXY/LB1D1

Departure

Time N/A
Airport Munich Airport (EDDM)

Arrival

Time 2026-05-06 20:56
Airport Palma de Mallorca Airport (LEPA)
Time Latitude Longitude Altitude Speed Heading
2026-05-06 20:17 40.31799 4.53402 22794 ft 367 kts 235°
2026-05-06 20:17 40.30305 4.50692 22794 ft 367 kts 235°
2026-05-06 20:18 40.28809 4.47982 22793 ft 367 kts 235°
2026-05-06 20:18 40.27313 4.45271 22793 ft 367 kts 235°
2026-05-06 20:18 40.25818 4.42567 22790 ft 367 kts 235°
2026-05-06 20:18 40.24319 4.39859 22791 ft 367 kts 235°
2026-05-06 20:19 40.22823 4.37157 22789 ft 367 kts 235°
2026-05-06 20:19 40.21323 4.34451 22785 ft 367 kts 235°
2026-05-06 20:19 40.19826 4.31753 22787 ft 367 kts 235°
2026-05-06 20:19 40.18322 4.29046 22788 ft 367 kts 235°
2026-05-06 20:20 40.17186 4.27002 22789 ft 367 kts 235°
2026-05-06 20:20 40.15684 4.24302 22788 ft 367 kts 235°
2026-05-06 20:20 40.14202 4.21639 22790 ft 367 kts 235°
2026-05-06 20:20 40.12680 4.18908 22790 ft 367 kts 235°
2026-05-06 20:21 40.11179 4.16215 22789 ft 367 kts 235°
2026-05-06 20:21 40.09675 4.13521 22794 ft 367 kts 235°
2026-05-06 20:21 40.08192 4.10866 22789 ft 367 kts 235°
2026-05-06 20:21 40.06685 4.08171 22790 ft 367 kts 235°
2026-05-06 20:22 40.05160 4.05445 22788 ft 367 kts 235°
2026-05-06 20:22 40.03673 4.02790 22782 ft 367 kts 235°
2026-05-06 20:22 40.02164 4.00099 22789 ft 367 kts 235°
2026-05-06 20:22 40.00655 3.97409 22786 ft 367 kts 235°
2026-05-06 20:23 39.99149 3.94725 22784 ft 367 kts 235°
2026-05-06 20:23 39.97640 3.92040 22784 ft 367 kts 235°
2026-05-06 20:23 39.96132 3.89360 22784 ft 367 kts 235°
2026-05-06 20:23 39.94625 3.86683 22781 ft 366 kts 235°
2026-05-06 20:24 39.93116 3.84005 22780 ft 366 kts 235°
2026-05-06 20:24 39.91608 3.81330 22778 ft 366 kts 235°
2026-05-06 20:24 39.90098 3.78663 22774 ft 366 kts 235°
2026-05-06 20:24 39.88577 3.75998 22769 ft 366 kts 235°
2026-05-06 20:25 39.87060 3.73342 22766 ft 366 kts 235°
2026-05-06 20:25 39.85546 3.70684 22770 ft 366 kts 235°
2026-05-06 20:25 39.84031 3.68019 22498 ft 367 kts 235°
2026-05-06 20:25 39.82518 3.65355 22018 ft 364 kts 235°
2026-05-06 20:26 39.81014 3.62708 21514 ft 363 kts 235°
2026-05-06 20:26 39.79528 3.60067 21027 ft 361 kts 235°
2026-05-06 20:26 39.78056 3.57431 20531 ft 360 kts 235°
2026-05-06 20:26 39.76577 3.54804 20042 ft 359 kts 235°
2026-05-06 20:27 39.75110 3.52240 19563 ft 358 kts 234°
2026-05-06 20:27 39.73621 3.49652 19067 ft 357 kts 234°
2026-05-06 20:27 39.72139 3.47075 18587 ft 356 kts 234°
2026-05-06 20:27 39.70656 3.44491 18063 ft 355 kts 234°
2026-05-06 20:28 39.69239 3.41868 17553 ft 353 kts 239°
2026-05-06 20:28 39.68035 3.39108 17022 ft 351 kts 243°
2026-05-06 20:28 39.66929 3.36292 16550 ft 348 kts 244°
2026-05-06 20:28 39.65864 3.33490 16244 ft 343 kts 244°
2026-05-06 20:29 39.64846 3.30797 16119 ft 321 kts 244°
2026-05-06 20:29 39.63892 3.28286 16018 ft 301 kts 244°
2026-05-06 20:29 39.62968 3.25860 15850 ft 299 kts 244°
2026-05-06 20:29 39.62047 3.23455 15495 ft 297 kts 244°
2026-05-06 20:30 39.61127 3.21060 15000 ft 296 kts 244°
2026-05-06 20:30 39.59322 3.16371 14066 ft 289 kts 244°
2026-05-06 20:30 39.58466 3.14149 13607 ft 290 kts 244°
2026-05-06 20:31 39.57566 3.11816 13098 ft 289 kts 244°
2026-05-06 20:31 39.56669 3.09491 12716 ft 286 kts 244°
2026-05-06 20:31 39.55775 3.07176 12531 ft 289 kts 244°
2026-05-06 20:31 39.54878 3.04858 12327 ft 288 kts 244°
2026-05-06 20:32 39.53978 3.02529 12115 ft 288 kts 244°
2026-05-06 20:32 39.53079 3.00209 11911 ft 288 kts 244°
2026-05-06 20:32 39.52181 2.97891 11705 ft 288 kts 244°
2026-05-06 20:32 39.51285 2.95580 11502 ft 287 kts 244°
2026-05-06 20:33 39.50388 2.93268 11305 ft 287 kts 244°
2026-05-06 20:33 39.49595 2.90922 11111 ft 283 kts 248°
2026-05-06 20:33 39.48857 2.88569 10906 ft 281 kts 248°
2026-05-06 20:33 39.48111 2.86230 10697 ft 281 kts 248°
2026-05-06 20:34 39.47373 2.83924 10516 ft 281 kts 248°
2026-05-06 20:34 39.46628 2.81593 10320 ft 280 kts 248°
2026-05-06 20:34 39.45882 2.79264 10138 ft 280 kts 248°
2026-05-06 20:34 39.45133 2.76929 9936 ft 280 kts 248°
2026-05-06 20:35 39.44388 2.74607 9736 ft 279 kts 248°
2026-05-06 20:35 39.43644 2.72293 9525 ft 279 kts 248°
2026-05-06 20:35 39.42901 2.69983 9298 ft 278 kts 248°
2026-05-06 20:35 39.42156 2.67672 9099 ft 277 kts 248°
2026-05-06 20:36 39.41420 2.65388 8637 ft 275 kts 248°
2026-05-06 20:36 39.40686 2.63107 8110 ft 274 kts 248°
2026-05-06 20:36 39.39959 2.60836 7602 ft 273 kts 248°
2026-05-06 20:36 39.39238 2.58574 7110 ft 271 kts 248°
2026-05-06 20:37 39.38386 2.56411 6579 ft 270 kts 236°
2026-05-06 20:37 39.37277 2.54462 6079 ft 269 kts 232°
2026-05-06 20:37 39.36134 2.52557 5594 ft 267 kts 231°
2026-05-06 20:37 39.35198 2.50584 5436 ft 251 kts 251°
2026-05-06 20:38 39.35055 2.48412 5303 ft 239 kts 281°
2026-05-06 20:38 39.35753 2.46511 5177 ft 241 kts 312°
2026-05-06 20:38 39.37112 2.45301 5059 ft 239 kts 342°
2026-05-06 20:38 39.38744 2.45148 4943 ft 236 kts 13°
2026-05-06 20:39 39.40248 2.45953 4840 ft 236 kts 30°
2026-05-06 20:39 39.41665 2.47007 4596 ft 234 kts 32°
2026-05-06 20:39 39.43069 2.48065 4172 ft 232 kts 32°
2026-05-06 20:39 39.44305 2.49318 3777 ft 224 kts 52°
2026-05-06 20:40 39.45214 2.50998 3515 ft 226 kts 58°
2026-05-06 20:40 39.46026 2.52657 3225 ft 211 kts 59°
2026-05-06 20:40 39.46771 2.54218 2958 ft 196 kts 60°
2026-05-06 20:40 39.47465 2.55675 2714 ft 183 kts 59°
2026-05-06 20:41 39.48114 2.57017 2500 ft 174 kts 59°
2026-05-06 20:41 39.48752 2.58344 2258 ft 172 kts 59°
2026-05-06 20:41 39.49379 2.59656 2048 ft 172 kts 60°
2026-05-06 20:41 39.49994 2.60959 1881 ft 171 kts 60°
2026-05-06 20:42 39.50595 2.62273 1649 ft 166 kts 61°
2026-05-06 20:42 39.51177 2.63556 1445 ft 165 kts 61°
2026-05-06 20:42 39.51742 2.64764 1124 ft 151 kts 59°
2026-05-06 20:42 39.52285 2.65911 902 ft 150 kts 59°
2026-05-06 20:43 39.52874 2.67192 1363 ft 173 kts 59°
2026-05-06 20:43 39.53517 2.68537 2113 ft 172 kts 59°
2026-05-06 20:43 39.54142 2.69788 2182 ft 174 kts 58°
2026-05-06 20:43 39.54860 2.71268 2259 ft 213 kts 59°
2026-05-06 20:44 39.55645 2.72930 2718 ft 221 kts 59°
2026-05-06 20:44 39.56672 2.74500 2969 ft 241 kts 38°
2026-05-06 20:44 39.58138 2.75738 3024 ft 261 kts 37°
2026-05-06 20:44 39.59341 2.77460 3012 ft 257 kts 63°
2026-05-06 20:45 39.59767 2.79685 3023 ft 257 kts 91°
2026-05-06 20:45 39.59328 2.81900 3023 ft 256 kts 119°
2026-05-06 20:45 39.58132 2.83583 3029 ft 257 kts 145°
2026-05-06 20:45 39.56581 2.84760 3030 ft 259 kts 151°
2026-05-06 20:46 39.54988 2.85845 3024 ft 258 kts 152°
2026-05-06 20:46 39.53391 2.86905 3023 ft 257 kts 156°
2026-05-06 20:46 39.51641 2.87336 3017 ft 259 kts 183°
2026-05-06 20:46 39.49928 2.86651 3021 ft 262 kts 210°
2026-05-06 20:47 39.48496 2.85189 3028 ft 264 kts 222°
2026-05-06 20:47 39.47272 2.83404 3025 ft 266 kts 231°
2026-05-06 20:47 39.46143 2.81505 3023 ft 266 kts 231°
2026-05-06 20:47 39.45041 2.79628 3022 ft 266 kts 232°
2026-05-06 20:48 39.43923 2.77721 3022 ft 266 kts 231°
2026-05-06 20:48 39.42870 2.75755 3020 ft 266 kts 237°
2026-05-06 20:48 39.41921 2.73696 3023 ft 266 kts 238°
2026-05-06 20:48 39.40990 2.71622 3019 ft 267 kts 238°
2026-05-06 20:49 39.40059 2.69545 3014 ft 267 kts 238°
2026-05-06 20:49 39.39130 2.67469 3013 ft 267 kts 239°
2026-05-06 20:49 39.38196 2.65389 3012 ft 267 kts 239°
2026-05-06 20:49 39.37338 2.63266 3004 ft 269 kts 251°
2026-05-06 20:50 39.37138 2.60881 2926 ft 269 kts 278°
2026-05-06 20:50 39.37780 2.58674 2798 ft 267 kts 305°
2026-05-06 20:50 39.39056 2.56950 2697 ft 265 kts 320°
2026-05-06 20:50 39.40417 2.55484 2548 ft 242 kts 322°
2026-05-06 20:51 39.41672 2.54218 2401 ft 216 kts 331°
2026-05-06 20:51 39.43004 2.53744 2297 ft 184 kts
2026-05-06 20:51 39.44276 2.53730 2326 ft 180 kts
2026-05-06 20:51 39.45522 2.53713 2339 ft 179 kts
2026-05-06 20:52 39.46746 2.53833 2262 ft 176 kts 24°
2026-05-06 20:52 39.47626 2.54819 2256 ft 169 kts 62°
2026-05-06 20:52 39.48099 2.56215 2306 ft 170 kts 70°
2026-05-06 20:52 39.48553 2.57630 2346 ft 171 kts 66°
2026-05-06 20:53 39.49107 2.58999 2182 ft 173 kts 62°
2026-05-06 20:53 39.49688 2.60336 1957 ft 171 kts 62°
2026-05-06 20:53 39.50286 2.61657 1743 ft 169 kts 60°
2026-05-06 20:53 39.50893 2.62924 1494 ft 166 kts 59°
2026-05-06 20:54 39.51485 2.64131 1286 ft 149 kts 59°
2026-05-06 20:54 39.52016 2.65273 1108 ft 147 kts 60°
2026-05-06 20:54 39.52534 2.66414 895 ft 147 kts 59°
2026-05-06 20:54 39.53065 2.67551 748 ft 146 kts 59°
2026-05-06 20:55 39.53591 2.68681 517 ft 145 kts 58°
2026-05-06 20:55 39.54114 2.69793 306 ft 144 kts 58°
2026-05-06 20:55 39.54634 2.70897 117 ft 144 kts 58°
2026-05-06 20:55 39.55125 2.71934 46 ft 108 kts 58°
2026-05-06 20:56 39.55372 2.72458 46 ft 28 kts 58°
2026-05-06 20:56 39.55452 2.72627 46 ft 24 kts 60°
2026-05-06 20:56 39.55496 2.72874 46 ft 31 kts 89°
2026-05-06 20:56 39.55502 2.73142 46 ft 28 kts 83°
2026-05-06 20:57 39.55581 2.73346 44 ft 19 kts 59°
2026-05-06 20:57 39.55628 2.73462 46 ft 8 kts 76°
2026-05-06 20:57 39.55617 2.73501 46 ft 7 kts 128°
2026-05-06 20:57 39.55555 2.73552 43 ft 14 kts 149°
2026-05-06 20:58 39.55452 2.73632 46 ft 20 kts 149°
2026-05-06 20:58 39.55318 2.73738 46 ft 24 kts 148°
2026-05-06 20:58 39.55219 2.73815 46 ft 11 kts 151°
2026-05-06 20:58 39.55205 2.73820 46 ft 2 kts 170°
2026-05-06 20:59 39.55186 2.73811 46 ft 4 kts 210°
2026-05-06 20:59 39.55155 2.73785 46 ft 6 kts 200°
2026-05-06 20:59 39.55119 2.73793 46 ft 6 kts 156°
2026-05-06 20:59 39.55087 2.73815 44 ft 6 kts 152°
2026-05-06 21:00 39.55037 2.73851 46 ft 10 kts 150°
2026-05-06 21:00 39.54984 2.73848 44 ft 6 kts 221°
2026-05-06 21:00 39.54962 2.73804 46 ft 2 kts 240°
2026-05-06 21:00 39.54953 2.73784 45 ft 3 kts 239°
2026-05-06 21:01 39.54947 2.73771 46 ft 0 kts 239°